Location: Riedlingen
(48.1569°N, 9.4757°E)
Time: 17:57:08
(UTC+02:00)

ISS - Pass Details

Date: 06 January 2018
Orbit: 401 x 409 km, 51.6° (Epoch: 19 August)

Event Time Altitude Azimuth Distance (km) Brightness Sun altitude
Exits shadow 05:23:26 20° 60° (ENE) 1,049 -1.2 -27.1°
Drops below altitude 10° 05:24:39 10° 67° (ENE) 1,513 -0.2 -26.9°
Sets 05:26:48 0° 73° (ENE) 2,383 1.1 -26.6°
